Temp
21 23 23 23 23 24 24 25 25 25 25 24 24 23 23 23 23 22 22 21 21 21 21 21 21 21 21 21 21 21 21 21 20 19 19 19 19 19 19 19 19 20 19
22 22 23 23 23 24 24 24 24 24 24 24 23 23 23 23 22 22 22 21 21 21 21 21 21 21 21 21 21 21 21 21 20 20 19 19 19 19 19 19 19 19 19
19 21 22 22 22 22 23 23 24 24 24 23 23 23 22 22 22 22 21 21 21 21 21 21 21 20 20 20 20 21 21 20 20 20 20 20 19 19 19 19 19 19 19
20 21 21 22 22 22 22 23 23 23 23 23 22 22 22 22 22 21 21 21 21 21 21 20 20 20 20 20 20 20 20 20 20 20 19 19 19 19 19 19 19 19 18
20 20 21 22 22 22 22 22 22 22 21 21 22 22 22 22 21 21 21 20 20 20 20 21 21 20 20 20 20 20 20 21 20 19 19 19 19 19 19 19 19 19 19
19 20 21 21 22 22 22 21 21 21 21 21 21 21 21 21 21 21 21 21 21 20 20 20 20 20 20 20 20 20 20 20 20 19 19 19 19 19 19 19 19 19 19
19 20 20 21 21 21 21 20 20 21 21 21 20 20 20 20 20 20 20 20 20 20 20 20 20 20 19 20 20 20 20 20 19 19 19 19 19 20 19 19 19 19 19
19 19 20 20 21 21 21 21 21 21 21 20 20 20 20 19 19 20 20 20 20 20 20 19 19 19 19 19 19 19 19 19 19 19 19 19 20 20 19 19 19 19 19
18 19 19 20 20 21 21 21 21 21 21 20 20 19 19 19 19 18 19 19 19 19 19 19 19 19 20 19 20 20 20 19 19 19 19 19 20 20 20 20 19 19 19
18 19 19 19 20 19 19 19 20 20 20 20 20 19 19 19 19 18 18 18 18 18 19 19 19 19 19 19 19 19 19 20 19 18 19 19 20 20 20 19 19 19 19
17 18 19 19 19 19 18 18 18 19 18 18 18 17 17 18 18 17 18 18 18 18 18 18 18 18 18 18 19 19 19 18 19 19 19 19 20 20 20 20 20 19 19
14 16 17 18 19 19 18 17 17 17 17 17 17 17 17 17 17 17 17 17 18 18 18 18 18 18 18 18 18 18 18 18 18 18 18 20 20 20 20 20 20 20 19
13 15 15 16 17 18 17 17 16 16 16 17 17 16 16 16 16 17 17 18 18 18 17 17 17 18 17 17 17 17 17 17 18 18 19 19 19 19 19 19 20 21 20
12 13 14 15 16 16 16 16 15 15 15 15 15 16 16 16 15 15 16 16 16 16 16 16 16 17 17 17 17 17 17 17 18 18 18 19 19 19 19 19 19 20 20
11 12 13 15 15 15 15 14 14 14 14 14 14 14 14 14 14 14 14 14 14 14 15 15 15 16 16 16 16 17 16 16 17 17 17 18 19 19 19 18 18 19 19
11 12 13 13 13 13 13 13 12 12 12 13 12 12 12 12 12 12 12 12 12 12 13 13 14 14 15 15 16 16 16 16 17 17 16 16 18 18 18 17 17 17 17
10 11 11 12 12 12 12 12 11 11 11 11 10 11 11 11 11 11 11 11 11 11 12 12 13 13 13 14 15 15 16 16 17 16 16 15 15 16 15 16 16 16 16
10 10 10 11 11 11 11 11 10 10 10 10 9 9 10 10 10 10 9 9 9 9 10 9 10 10 10 11 13 15 15 16 16 16 15 14 14 14 15 15 15 15 16
9 10 11 10 10 10 10 10 9 9 8 8 8 8 8 9 9 9 8 8 8 8 8 7 7 8 9 9 10 12 14 15 15 14 13 13 13 13 13 14 14 14 15
8 10 10 9 10 10 9 9 8 8 7 6 6 7 7 7 7 7 6 7 6 5 5 5 6 6 7 7 9 10 12 12 11 11 11 12 12 12 12 13 13 14 14
8 8 9 9 9 9 7 7 6 5 5 4 4 5 5 6 6 6 4 4 4 4 4 5 5 6 7 6 9 11 12 11 10 10 10 10 9 9 10 11 11 11 12
8 7 8 8 8 8 8 8 7 5 3 3 3 4 5 5 5 5 4 3 3 4 4 4 4 6 6 6 6 8 12 13 11 10 9 9 8 8 9 9 9 10 10
7 7 7 7 7 8 8 8 7 5 4 3 3 2 3 3 4 3 3 3 3 3 3 3 3 4 5 5 5 7 8 10 8 11 10 9 8 7 8 8 8 8 8
7 6 6 7 7 7 7 7 6 6 5 2 2 1 1 3 3 3 3 1 1 2 2 3 3 3 4 4 5 5 4 5 7 8 10 10 8 8 7 7 7 6 6
6 5 5 5 5 6 6 6 6 5 3 2 1 1 1 2 2 2 2 1 1 1 1 1 2 2 2 3 3 3 4 5 4 4 6 6 7 7 7 7 6 6 5
5 4 4 4 4 5 6 6 6 4 2 2 1 1 1 0 -0 1 0 0 0 1 1 0 0 0 1 1 1 1 1 2 2 2 3 4 5 6 6 7 5 4 4
Height
811 812 814 816 816 816 816 817 817 816 817 818 819 820 821 823 825 827 828 829 831 832 833 834 834 835 836 835 834 834 834 834 834 835 836 836 838 840 840 841 841 843 844
811 812 814 815 816 816 817 816 817 818 819 820 821 822 823 825 826 828 829 831 833 834 835 835 836 837 837 837 837 836 836 835 835 836 837 837 838 840 842 843 843 844 846
810 811 813 814 816 817 817 818 818 819 821 822 823 824 825 826 827 829 830 831 833 834 836 837 837 838 839 839 838 838 837 837 837 838 838 839 840 839 840 843 844 845 847
809 810 812 813 816 818 818 818 820 822 822 823 824 825 826 827 828 829 831 831 832 834 836 837 838 838 839 839 839 839 839 839 839 839 840 841 842 841 841 843 844 846 847
812 811 812 813 815 817 819 819 820 822 824 825 825 826 827 827 828 830 831 831 833 834 835 836 837 838 839 839 840 840 840 839 839 839 840 841 842 842 842 843 843 845 846
811 812 814 815 815 817 818 820 820 822 823 825 826 827 828 829 829 830 831 832 833 834 835 837 837 838 838 838 839 839 840 839 839 840 840 840 840 842 843 843 843 844 845
813 814 815 816 816 817 818 819 820 821 823 823 825 826 827 828 829 830 831 832 833 834 835 836 837 837 838 838 839 839 839 839 840 840 839 840 840 841 841 842 843 844 844
812 813 815 816 817 817 818 819 820 821 822 823 824 825 826 827 827 828 829 830 831 832 834 835 836 836 837 838 838 838 839 839 840 840 839 839 839 840 841 841 842 842 843
813 815 815 816 816 817 817 819 820 820 821 822 823 824 825 826 826 828 828 829 830 831 832 833 834 834 834 834 835 835 836 837 838 838 838 838 837 839 839 839 839 841 842
813 813 815 815 816 817 817 817 818 819 820 821 821 823 824 825 825 826 827 827 828 829 829 831 832 832 832 832 832 832 833 833 833 834 834 836 835 836 837 838 838 838 839
814 814 814 815 815 816 817 817 818 819 820 820 821 821 822 823 824 825 825 825 826 827 827 828 829 830 830 830 830 830 830 830 830 831 832 831 833 833 833 832 833 834 834
816 815 815 815 815 815 816 817 817 818 819 819 820 821 821 822 822 823 824 824 824 825 825 825 826 827 826 828 827 827 827 827 827 827 826 826 828 829 829 829 828 828 830
815 816 816 816 816 815 816 816 817 818 819 820 820 820 820 821 821 821 822 823 823 824 824 824 824 824 825 825 825 825 825 825 825 825 823 822 823 824 824 824 823 824 825
814 814 815 816 816 816 816 816 816 817 818 819 820 820 820 820 820 821 821 821 822 822 823 823 822 822 822 822 822 823 822 822 823 822 820 818 818 818 817 818 817 820 821
813 813 814 815 816 817 817 818 817 818 819 819 820 820 820 820 820 821 821 821 821 821 822 821 820 820 820 819 820 819 819 819 818 818 817 815 814 813 812 812 813 815 818
812 813 814 816 817 818 818 819 819 819 820 820 820 820 820 820 820 821 821 820 821 821 821 821 819 818 817 817 817 817 816 815 814 813 813 812 810 809 807 807 809 810 811
811 812 815 815 817 818 818 820 820 820 822 822 821 821 821 820 821 821 821 821 821 822 821 821 819 818 817 816 814 814 813 811 810 808 808 808 808 805 803 803 804 806 806
809 812 812 815 817 818 819 820 821 822 823 823 823 823 823 822 822 821 821 821 822 822 821 820 818 817 816 814 812 811 810 808 806 804 803 803 804 803 800 800 800 801 801
810 810 811 814 815 818 819 820 822 823 824 825 825 825 824 823 823 822 821 821 822 821 821 820 819 817 816 814 812 809 807 804 802 801 800 799 800 800 799 798 796 797 797
808 808 809 813 814 817 820 821 822 823 824 825 826 825 825 824 824 823 822 822 821 821 821 819 818 817 815 814 811 808 804 802 801 799 798 797 797 797 797 795 794 793 793
806 807 808 812 813 815 819 821 822 823 824 825 826 825 825 824 823 823 822 822 822 822 821 819 817 816 816 814 810 807 804 803 803 802 801 802 798 798 798 795 794 793 791
802 805 807 810 813 815 819 819 821 822 824 825 826 826 825 824 824 823 823 823 823 823 822 821 819 818 816 816 815 812 807 803 803 804 802 801 801 801 798 797 795 794 792
799 801 804 807 810 813 817 819 820 822 824 826 827 827 826 826 825 825 825 825 824 825 826 825 823 821 818 818 817 818 815 811 811 804 806 805 803 801 799 798 795 794 794
797 798 801 804 807 811 813 817 819 821 823 826 828 828 828 827 827 827 826 826 827 827 827 825 822 820 818 819 820 823 824 822 816 808 805 805 804 802 801 799 796 794 792
792 797 799 804 807 809 812 815 817 819 823 826 828 829 829 829 829 829 828 829 829 829 827 825 821 818 817 818 821 823 823 821 819 817 808 807 805 804 802 798 797 794 792
788 793 796 801 805 808 810 813 816 819 823 826 828 829 831 832 832 831 830 831 830 829 827 824 823 822 823 824 825 823 824 822 822 820 814 811 808 803 802 796 795 794 793
Wind_Speed
6 11 11 10 11 13 13 13 13 14 16 16 16 16 16 18 16 15 15 14 14 12 11 9 7 6 6 8 10 10 11 11 11 11 11 11 10 10 11 12 13 11 13
9 10 10 10 10 10 11 12 13 13 13 14 15 16 17 16 15 13 13 13 12 10 9 8 6 5 6 7 8 9 9 9 10 11 11 10 10 11 10 8 12 11 11
10 10 9 9 9 8 10 10 12 12 12 12 14 15 15 15 13 13 13 13 11 9 9 8 6 6 6 6 6 7 8 7 9 9 9 9 9 11 10 7 8 10 11
13 12 10 9 9 8 9 9 10 10 11 11 11 12 13 12 12 12 12 11 10 9 9 7 5 4 4 4 4 5 6 6 7 7 6 7 7 8 6 8 9 10 10
13 13 12 10 9 9 9 9 9 9 9 8 9 9 10 11 11 11 10 9 9 8 7 6 4 4 4 3 3 3 4 4 4 5 5 6 5 6 5 6 8 9 11
13 12 11 10 10 10 10 9 9 9 8 7 6 6 6 7 8 8 8 7 7 7 6 4 4 3 4 5 5 4 3 4 4 4 5 4 6 6 6 6 8 9 10
13 11 10 9 10 10 10 9 9 8 7 7 5 5 6 6 6 6 6 6 6 6 6 5 5 4 4 5 5 6 5 5 4 4 5 6 6 7 7 8 9 10 11
14 12 10 9 8 8 8 7 7 7 6 5 4 4 5 5 6 7 7 7 7 7 7 6 6 6 6 6 6 8 8 8 7 6 6 7 8 8 10 12 11 12 12
16 13 12 11 8 6 6 4 4 4 4 4 4 3 4 5 5 6 6 7 7 7 8 8 9 9 9 8 8 9 10 12 11 9 10 10 9 10 9 7 13 13 15
16 14 13 11 10 8 6 4 3 3 3 2 3 4 4 3 4 4 3 4 5 7 8 8 9 10 11 11 12 13 13 13 15 14 14 13 13 12 12 12 11 15 18
13 13 12 10 9 8 7 6 5 4 4 3 3 4 1 1 1 0 2 4 4 5 6 7 8 9 11 12 13 14 15 16 18 17 15 17 15 14 15 16 15 16 23
9 11 10 9 8 7 6 5 5 5 5 5 2 2 3 2 3 4 4 1 1 1 2 2 3 4 7 9 11 12 14 16 15 16 17 20 19 19 18 18 18 19 20
9 9 9 8 7 6 6 6 5 4 5 6 5 4 6 6 6 5 4 3 1 2 2 1 1 4 4 3 4 7 8 10 12 14 16 19 18 21 22 22 22 22 23
10 10 10 9 7 6 7 7 8 8 8 7 7 5 6 6 7 7 6 6 5 3 2 2 2 0 1 2 3 5 7 7 9 12 15 18 18 19 22 23 24 24 24
11 11 10 9 8 9 9 10 10 11 11 10 8 8 5 6 5 5 6 5 4 4 3 3 3 3 4 6 7 8 9 11 11 12 13 17 18 20 22 22 24 25 24
12 13 12 11 11 10 11 11 13 13 13 12 11 11 8 8 7 6 6 6 6 7 6 7 8 9 10 11 12 13 15 17 17 16 14 16 20 20 20 21 21 20 20
12 14 14 14 12 11 13 13 13 14 13 14 14 13 12 11 10 8 8 8 8 8 8 8 8 10 11 12 14 16 18 20 22 22 20 18 16 19 19 19 19 19 18
15 15 15 14 13 13 13 14 14 14 15 15 15 15 14 14 12 11 11 11 10 10 10 10 11 10 10 12 15 16 17 18 20 20 20 15 14 15 17 18 18 20 20
15 17 17 16 16 15 15 15 15 14 14 14 13 13 13 12 12 11 11 11 10 10 10 10 9 11 10 13 15 15 15 16 16 16 16 14 10 11 14 15 15 16 16
16 17 18 17 18 16 15 15 14 13 13 12 12 13 12 12 12 10 10 10 9 8 9 10 9 10 8 15 14 11 13 8 6 7 7 5 2 4 5 6 7 7 8
16 17 17 18 19 19 15 12 9 9 10 10 11 12 13 13 13 13 12 11 11 12 11 12 11 12 10 17 11 12 7 3 6 9 10 10 13 13 13 14 12 10 8
18 16 17 17 19 17 13 10 7 10 10 10 11 12 13 13 13 13 13 12 13 11 13 13 13 11 10 15 8 6 4 2 7 7 8 12 13 13 17 19 17 13 10
18 18 18 18 19 18 14 12 12 11 8 7 8 10 13 13 14 14 14 13 13 12 11 10 10 11 9 11 11 7 3 3 15 2 5 9 13 16 18 20 19 15 10
19 18 18 18 19 19 18 13 12 6 7 6 7 9 10 12 13 13 14 12 11 9 9 9 11 12 12 13 9 10 5 5 3 5 7 14 13 17 19 17 16 12 12
21 19 18 17 15 18 17 14 10 9 10 10 9 10 11 12 13 13 12 11 10 10 11 12 13 14 12 9 6 6 5 7 2 4 5 10 22 17 14 17 12 10 10
22 21 19 18 16 16 17 15 14 14 13 12 10 10 10 9 10 12 11 10 11 11 13 13 14 15 12 9 7 7 6 4 7 5 4 10 15 13 16 8 6 10 12
Wind_Direction
158 154 152 145 143 143 134 121 113 108 113 131 144 147 148 150 149 152 154 157 158 157 154 150 137 119 111 104 94 90 90 93 96 96 99 109 116 117 120 123 117 122 130
163 148 151 146 140 143 139 129 119 114 113 122 140 147 149 154 154 156 158 159 161 161 161 155 140 121 113 107 97 92 90 94 107 113 115 110 118 120 116 126 131 135 139
117 127 135 137 133 132 130 127 124 123 120 124 136 149 154 157 159 161 161 161 163 164 159 153 140 127 117 108 98 91 90 97 111 120 125 124 126 134 131 139 148 146 149
116 120 121 135 133 131 131 130 131 129 130 131 136 145 152 157 161 162 165 165 164 163 157 154 150 141 131 124 110 100 97 101 115 121 127 133 131 133 124 158 157 163 164
110 113 117 126 133 138 140 138 140 135 131 133 137 143 151 156 163 169 171 171 169 168 169 168 169 158 166 167 156 129 127 130 146 136 144 153 158 168 162 161 171 179 174
110 110 118 123 128 135 140 140 139 143 142 140 143 148 158 166 174 178 183 183 182 184 184 195 200 194 184 185 191 200 189 173 179 191 188 189 201 193 198 198 190 192 192
121 116 118 128 131 135 134 131 129 135 139 146 157 167 174 185 189 195 201 206 207 209 208 216 228 232 229 224 228 232 234 228 214 222 227 235 231 216 215 215 213 208 204
130 126 125 135 143 144 141 140 141 136 137 142 162 181 189 200 211 215 215 218 220 224 228 219 233 251 254 253 250 253 255 259 262 258 255 251 251 249 240 242 226 215 215
121 122 121 117 118 140 155 161 163 164 169 168 159 179 202 207 215 227 229 232 233 235 238 238 238 240 244 246 255 259 262 264 260 259 264 261 256 258 251 236 224 226 220
120 119 117 119 116 117 124 149 172 169 152 171 196 213 207 208 221 225 221 235 241 242 241 245 248 250 248 243 240 247 255 261 263 260 262 260 264 258 258 256 242 237 229
113 112 114 117 122 121 120 133 148 154 133 113 67 53 328 164 196 54 228 232 238 249 247 250 256 258 259 257 254 252 254 253 258 261 263 264 268 262 257 252 252 256 233
104 103 104 106 111 113 117 121 123 111 89 73 78 95 92 119 129 130 125 134 161 202 237 248 259 278 279 270 268 266 263 262 261 263 261 270 270 265 260 255 249 242 238
122 109 101 102 102 110 117 119 117 113 93 78 79 81 92 114 128 140 139 127 102 53 47 118 65 305 301 315 296 285 281 278 270 264 266 271 274 271 262 256 250 242 236
135 123 110 97 91 93 103 106 102 99 99 104 93 99 104 103 103 100 100 92 79 59 57 26 43 339 297 305 306 304 297 291 285 278 274 273 271 268 264 258 252 249 243
138 127 118 112 109 106 106 102 101 98 95 93 91 89 102 102 99 90 80 66 51 36 2 352 349 320 304 295 296 295 294 291 284 286 284 283 275 265 263 262 260 255 252
141 134 132 128 120 118 110 105 100 99 96 94 86 79 80 79 78 69 52 43 26 17 6 351 339 330 317 310 302 299 297 294 290 284 284 285 281 273 265 263 264 265 257
143 142 141 132 129 127 119 113 106 97 91 84 80 75 72 72 66 63 54 44 32 20 8 356 346 334 327 320 313 307 302 297 294 291 288 283 285 288 279 273 269 263 256
152 153 147 142 139 132 124 115 106 100 94 87 81 74 68 66 64 62 58 51 41 31 25 17 7 358 346 338 329 320 311 305 302 300 295 291 288 285 287 283 275 270 265
160 154 148 153 148 141 130 121 113 104 92 81 75 67 63 61 58 57 54 47 38 31 25 21 14 9 355 345 335 325 319 314 309 309 307 305 298 299 297 294 292 282 269
160 155 152 158 154 148 139 128 115 103 90 80 69 64 61 59 58 60 54 44 39 35 27 19 15 9 3 343 325 314 324 329 356 7 13 49 20 330 335 325 315 289 274
163 160 161 165 164 159 151 140 127 113 97 82 69 64 60 57 54 54 52 45 42 39 32 25 21 15 10 357 347 337 334 22 50 43 54 54 50 42 36 30 24 21 38
167 164 169 173 174 173 172 164 146 131 102 89 76 64 60 57 54 51 48 43 39 37 32 29 27 21 25 20 10 328 354 327 13 24 45 47 38 29 26 18 17 15 21
172 172 174 176 180 183 186 167 147 126 108 85 72 66 59 58 56 55 53 49 45 44 40 38 35 33 26 27 38 27 349 339 338 341 13 17 13 10 359 5 8 15 11
179 173 172 174 176 183 184 177 166 156 140 123 101 87 77 71 68 67 63 59 57 56 50 47 44 44 39 30 22 9 354 320 318 304 304 323 353 347 345 350 358 10 12
172 169 162 161 163 172 172 173 173 146 132 128 116 102 84 75 74 72 69 64 61 59 57 55 50 47 47 50 41 352 342 322 3 328 310 327 315 319 319 324 327 354 15
169 166 161 157 155 157 163 164 161 148 142 136 124 106 91 84 80 76 73 71 66 62 55 52 48 44 43 42 30 30 17 0 339 329 304 317 308 322 314 329 14 13 3